Location: Camp Crooked Creek
(37.9149°N, 85.6607°W)
Time: 19:46:29
(UTC-04:00)

Amateur Radio Satellites - All Passes

Search period start: 24 June 2016 19:16
Search period end: 25 June 2016 19:16
Location: Camp Crooked Creek, 37.9149°N, 85.6607°W

Satellite Date Start Highest point End Downlink Frequencies (MHz)
Time Altitude Azimuth
HO-68 24 Jun 19:16:44 19:21:01 17° 56° (NE) 19:25:17 435.675
BRITE-PL 24 Jun 19:33:09 19:38:14 46° 261° (W) 19:42:58 437.365/2234.400
CUBESAT XI-V 24 Jun 19:36:19 19:40:46 47° 287° (WNW) 19:45:09 437.345
Cosmos 2499 24 Jun 19:39:06 19:46:23 38° 86° (E) 19:54:06 435.465 / 435.565
CUTE-I 24 Jun 19:39:19 19:44:32 55° 260° (W) 19:49:48 437.470
JUGNU 24 Jun 19:46:50 19:49:26 13° 180° (S) 19:52:01 437.505
LilacSat-2 24 Jun 19:49:37 19:53:01 32° 263° (W) 19:56:27 437.200
DANDE 24 Jun 19:57:04 20:01:15 22° 66° (ENE) 20:04:37 436.750
AIST 1 24 Jun 19:59:52 20:01:53 13° 289° (WNW) 20:03:55
NOAA 18 24 Jun 20:01:43 20:06:29 31° 263° (W) 20:11:19 137.9125
CINEMA 3 24 Jun 20:08:23 20:11:37 22° 69° (ENE) 20:14:50 145.822/145.860
DOVE 4 24 Jun 20:15:48 20:20:17 76° 259° (W) 20:24:34 437.250
CUSAT 1 24 Jun 20:16:19 20:20:22 88° 261° (W) 20:23:29 437.405
NOAA 15 24 Jun 20:25:21 20:28:14 15° 268° (W) 20:31:08 137.62
GONETS M04 24 Jun 20:27:36 20:36:17 73° 278° (W) 20:45:01
GOMX 1 24 Jun 20:31:20 20:35:13 24° 264° (W) 20:38:56 467.674
AAUSAT CUBESAT 2 24 Jun 20:32:57 20:35:22 15° 67° (ENE) 20:37:49 437.432
CUBEBUG 2 24 Jun 20:37:04 20:39:09 14° 65° (ENE) 20:41:14 437.445
CANX-2 24 Jun 20:41:11 20:45:22 56° 75° (ENE) 20:49:34 2200.000
STRAND 1 24 Jun 20:45:00 20:50:05 55° 101° (E) 20:55:06 437.568
Cubesat XI-IV 24 Jun 20:46:37 20:49:09 13° 269° (W) 20:51:43 437.490
AUBIESAT-1 24 Jun 20:50:46 20:52:56 17° 64° (ENE) 20:55:06 437.475
SRMSAT 24 Jun 20:53:33 20:55:26 11° 173° (S) 20:57:19 437.500
RS-15 24 Jun 20:56:29 21:07:21 34° 38° (NE) 21:18:10 29.354- 29.394
HO-68 24 Jun 21:00:36 21:07:45 89° 253° (WSW) 21:14:58 435.675
COMPASS 1 24 Jun 21:00:48 21:04:43 39° 73° (ENE) 21:08:40 437.405
CUTE 1.7 + AOD 2 24 Jun 21:02:00 21:06:15 86° 80° (E) 21:10:34 437.475
SEEDS 24 Jun 21:14:14 21:18:28 84° 76° (ENE) 21:22:45 437.485
ZACube-1 24 Jun 21:22:00 21:25:01 20° 68° (ENE) 21:28:04 437.345
M-CUBED/EXP-1 PRIME 24 Jun 21:24:57 21:28:14 63° 71° (ENE) 21:31:28 437.505
PRISM 24 Jun 21:26:51 21:29:52 20° 95° (E) 21:32:52 437.425
Cosmos 2499 24 Jun 21:31:41 21:39:19 43° 285° (WNW) 21:47:30 435.465 / 435.565
UWE-3 24 Jun 21:31:54 21:35:45 38° 72° (ENE) 21:39:41 435.000/436.395/437.385
JUGNU 24 Jun 21:36:55 21:37:33 10° 190° (S) 21:38:11 437.505
Oscar 11 24 Jun 21:39:38 21:43:34 35° 72° (ENE) 21:47:31 145.826/435.025
DANDE 24 Jun 21:39:39 21:44:11 29° 273° (W) 21:47:42 436.750
FUNcube-1 24 Jun 21:41:21 21:45:00 30° 70° (ENE) 21:48:42 145.935
CINEMA 3 24 Jun 21:45:09 21:48:38 26° 264° (W) 21:52:07 145.822/145.860
AAUSAT CUBESAT 2 24 Jun 22:06:32 22:10:29 41° 262° (W) 22:14:29 437.432
CUBEBUG 2 24 Jun 22:11:24 22:15:21 45° 261° (W) 22:19:24 437.445
CANX-2 24 Jun 22:20:22 22:21:33 11° 270° (W) 22:22:43 2200.000
AUBIESAT-1 24 Jun 22:24:39 22:27:18 22° 258° (WSW) 22:29:57 437.475
STRAND 1 24 Jun 22:25:29 22:28:46 17° 296° (WNW) 22:32:02 437.568
GONETS M04 24 Jun 22:31:15 22:34:46 13° 300° (WNW) 22:38:17
COMPASS 1 24 Jun 22:37:58 22:40:25 15° 267° (W) 22:42:54 437.405
SRMSAT 24 Jun 22:41:20 22:43:43 12° 183° (S) 22:46:06 437.500
HO-68 24 Jun 22:53:00 22:56:18 14° 270° (W) 22:59:38 435.675
DELFI C3 24 Jun 22:54:49 22:58:49 68° 258° (WSW) 23:02:51 145.870
ZACube-1 24 Jun 22:57:24 23:01:05 30° 263° (W) 23:04:51 437.345
PRISM 24 Jun 23:01:39 23:05:10 28° 290° (WNW) 23:08:40 437.425
AO-85 24 Jun 23:02:52 23:08:04 47° 115° (ESE) 23:13:10 145.980
RS-15 24 Jun 23:08:55 23:21:18 82° 243° (WSW) 23:33:29 29.354- 29.394
UWE-3 24 Jun 23:10:01 23:12:24 15° 268° (W) 23:14:49 435.000/436.395/437.385
ANTELSAT 24 Jun 23:10:49 23:14:19 21° 94° (E) 23:17:50 437.575/2403.000
HUMSAT D 24 Jun 23:12:12 23:16:19 83° 78° (ENE) 23:20:32 437.325/437.525
Oscar 11 24 Jun 23:16:46 23:19:46 18° 267° (W) 23:22:47 145.826/435.025
CUBEBUG 1 24 Jun 23:17:47 23:18:44 11° 63° (ENE) 23:19:42 437.445
FUNcube-1 24 Jun 23:18:15 23:21:16 19° 266° (W) 23:24:20 145.935
ESTCUBE 1 24 Jun 23:29:31 23:33:04 23° 68° (ENE) 23:36:38 437.505/2401.250
AISAT 24 Jun 23:51:32 23:55:10 26° 69° (ENE) 23:58:48 437.250
TIGRISAT 25 Jun 00:02:52 00:07:30 74° 103° (ESE) 00:12:10 435.000
UNISAT 6 25 Jun 00:06:30 00:11:09 86° 106° (ESE) 00:15:51 437.425
UKube-1 25 Jun 00:15:17 00:18:56 27° 70° (ENE) 00:22:36 .
SPROUT 25 Jun 00:25:32 00:28:53 23° 69° (ENE) 00:32:14 437.525
DX 1 25 Jun 00:26:24 00:30:33 46° 73° (ENE) 00:34:43 434.975-435.025
50 SAT 25 Jun 00:42:50 00:46:31 74° 258° (WSW) 00:50:16 437.505
YUBILEINY 25 Jun 00:43:24 00:51:38 41° 75° (ENE) 00:59:49 435.215
AO-85 25 Jun 00:44:16 00:48:46 26° 311° (NW) 00:53:09 145.980
Cosmos 2504 25 Jun 00:46:28 00:49:45 12° 59° (ENE) 00:52:59 435.465 / 435.565
VELOX 1 25 Jun 00:46:38 00:51:03 80° 259° (WSW) 00:55:29 145.980
ANTELSAT 25 Jun 00:46:51 00:51:03 35° 289° (WNW) 00:55:19 437.575/2403.000
CUBEBUG 1 25 Jun 00:50:05 00:54:26 67° 259° (WSW) 00:58:48 437.445
ESTCUBE 1 25 Jun 01:05:40 01:09:41 31° 263° (W) 01:13:44 437.505/2401.250
NANOSAT C BR1 25 Jun 01:14:55 01:19:10 77° 103° (ESE) 01:23:24 145.865
QB50P1 25 Jun 01:15:22 01:19:38 83° 103° (ESE) 01:23:54 145.935-145.965
BUGSAT 1 25 Jun 01:16:27 01:20:05 30° 97° (E) 01:23:44 437.445
POPSAT HIP 1 25 Jun 01:18:10 01:22:26 87° 109° (ESE) 01:26:41 437.405
RS-15 25 Jun 01:24:23 01:31:49 19° 262° (W) 01:39:14 29.354- 29.394
AISAT 25 Jun 01:27:51 01:31:32 26° 264° (W) 01:35:15 437.250
QB50P2 25 Jun 01:29:25 01:33:38 63° 285° (WNW) 01:37:51 145.880/145.840
POLYITAN 1 25 Jun 01:32:02 01:36:15 62° 285° (WNW) 01:40:28 437.675
DUCHIFAT 1 25 Jun 01:37:41 01:41:51 60° 285° (WNW) 01:46:02 145.980
TIGRISAT 25 Jun 01:42:19 01:43:34 11° 297° (WNW) 01:44:48 435.000
Cosmos 2491 25 Jun 01:48:38 01:57:09 58° 91° (E) 02:05:39 435.465 / 435.565
UKube-1 25 Jun 01:51:29 01:54:56 23° 264° (W) 01:58:23 .
TISAT 1 25 Jun 02:00:39 02:04:47 72° 76° (ENE) 02:08:56 437.305
SPROUT 25 Jun 02:01:05 02:04:41 27° 264° (W) 02:08:18 437.525
SWISSCUBE 25 Jun 02:03:44 02:06:49 17° 65° (ENE) 02:09:53 437.505
DX 1 25 Jun 02:04:43 02:06:58 14° 267° (W) 02:09:12 434.975-435.025
SO-50 25 Jun 02:06:30 02:10:33 28° 50° (NE) 02:14:28 436.795
JAS-2 25 Jun 02:09:38 02:15:15 54° 99° (E) 02:20:24 435.910
Oscar 19 25 Jun 02:15:52 02:19:49 22° 95° (E) 02:23:43 437.125/150
ITUPSAT 1 25 Jun 02:26:43 02:30:38 26° 68° (ENE) 02:34:35 437.325
BEESAT 25 Jun 02:28:26 02:32:26 27° 68° (ENE) 02:36:27 436.000
Cosmos 2504 25 Jun 02:36:05 02:44:59 67° 80° (E) 02:53:30 435.465 / 435.565
YUBILEINY 25 Jun 02:40:18 02:48:19 41° 273° (W) 02:56:21 435.215
BUGSAT 1 25 Jun 02:52:21 02:55:14 19° 292° (WNW) 02:58:09 437.445
PCSat 25 Jun 03:30:16 03:35:22 43° 111° (ESE) 03:40:29 145.827
Gurwin Techsat 1B 25 Jun 03:37:39 03:42:56 60° 101° (E) 03:48:10 435.225
SWISSCUBE 25 Jun 03:39:34 03:44:11 48° 260° (W) 03:48:50 437.505
BEESAT 2 25 Jun 03:43:11 03:44:18 11° 108° (ESE) 03:45:23 435.950
MOZHAYETS 4 25 Jun 03:45:35 03:48:35 17° 66° (ENE) 03:51:37
SO-50 25 Jun 03:46:57 03:50:59 30° 247° (WSW) 03:54:54 436.795
Cosmos 2491 25 Jun 03:47:06 03:54:25 29° 290° (WNW) 04:01:45 435.465 / 435.565
Oscar 19 25 Jun 03:54:29 03:59:13 39° 290° (WNW) 04:03:58 437.125/150
JAS-2 25 Jun 03:55:57 03:59:45 18° 299° (WNW) 04:03:22 435.910
ITUPSAT 1 25 Jun 04:04:06 04:08:19 31° 263° (W) 04:12:35 437.325
BEESAT 25 Jun 04:05:59 04:10:06 29° 263° (W) 04:14:15 436.000
ITAMSAT 1 25 Jun 04:07:41 04:12:35 40° 98° (E) 04:17:28 435.822/435.867
O/OREOS (USA 219) 25 Jun 04:15:26 04:19:50 56° 107° (ESE) 04:24:14 437.305
KKS-1 25 Jun 04:23:53 04:28:09 50° 73° (ENE) 04:32:27 437.445
Cosmos 2504 25 Jun 04:30:47 04:37:31 25° 279° (W) 04:44:06 435.465 / 435.565
BEESAT 3 25 Jun 04:48:02 04:51:55 63° 302° (WNW) 04:55:51 437.485
AO-7 25 Jun 04:53:56 05:01:50 43° 100° (E) 05:09:39 29.400- 29.500
CUBESAT XI-V 25 Jun 05:02:51 05:05:06 13° 64° (ENE) 05:07:21 437.345
STARS 25 Jun 05:07:11 05:11:31 78° 77° (ENE) 05:15:54 437.465
PCSat 25 Jun 05:14:26 05:18:54 26° 308° (NW) 05:23:26 145.827
BEESAT 2 25 Jun 05:17:44 05:21:37 54° 303° (WNW) 05:25:32 435.950
Gurwin Techsat 1B 25 Jun 05:19:03 05:22:21 17° 297° (WNW) 05:25:38 435.225
MOZHAYETS 4 25 Jun 05:20:59 05:25:23 44° 261° (W) 05:29:49
Cosmos 2499 25 Jun 05:35:04 05:38:15 12° 59° (ENE) 05:41:24 435.465 / 435.565
HORYU 2 25 Jun 05:42:52 05:46:09 20° 95° (E) 05:49:25 437.375
ITAMSAT 1 25 Jun 05:47:41 05:51:48 24° 294° (WNW) 05:55:53 435.822/435.867
O/OREOS (USA 219) 25 Jun 05:57:15 05:59:35 14° 304° (NW) 06:01:57 437.305
KKS-1 25 Jun 06:02:56 06:04:59 13° 268° (W) 06:07:03 437.445
AIST 1 25 Jun 06:05:54 06:10:05 61° 266° (W) 06:14:16
CUBESAT XI-V 25 Jun 06:37:17 06:41:56 61° 259° (W) 06:46:36 437.345
GONETS M04 25 Jun 06:40:04 06:48:32 53° 77° (ENE) 06:57:00
NOAA 18 25 Jun 06:45:56 06:49:04 15° 92° (E) 06:52:11 137.9125
AO-7 25 Jun 06:46:49 06:54:28 41° 298° (WNW) 07:02:05 29.400- 29.500
NOAA 15 25 Jun 07:00:21 07:04:43 26° 96° (E) 07:09:04 137.62
AIST 2 25 Jun 07:03:41 07:07:48 78° 302° (WNW) 07:11:57 435.215
HORYU 2 25 Jun 07:18:41 07:22:46 35° 289° (WNW) 07:26:50 437.375
Cubesat XI-IV 25 Jun 07:22:45 07:27:30 31° 97° (E) 07:32:14 437.490
Cosmos 2499 25 Jun 07:24:26 07:33:15 67° 80° (E) 07:41:32 435.465 / 435.565
LilacSat-2 25 Jun 07:24:31 07:27:53 28° 97° (E) 07:31:13 437.200
CUSAT 1 25 Jun 07:33:16 07:38:26 19° 86° (E) 07:43:17 437.405
AO-85 25 Jun 07:37:26 07:41:05 23° 48° (NE) 07:44:29 145.980
BRITE-PL 25 Jun 07:39:42 07:43:50 62° 100° (E) 07:47:57 437.365/2234.400
CUTE-I 25 Jun 07:57:58 08:03:21 69° 102° (ESE) 08:08:42 437.470
STRAND 1 25 Jun 07:58:59 08:04:03 66° 74° (ENE) 08:09:10 437.568
PRISM 25 Jun 08:15:55 08:17:44 13° 65° (ENE) 08:19:33 437.425
DOVE 4 25 Jun 08:16:07 08:19:54 30° 97° (E) 08:23:49 437.250
NOAA 18 25 Jun 08:24:39 08:30:08 65° 287° (WNW) 08:35:37 137.9125
CANX-2 25 Jun 08:30:26 08:31:40 11° 90° (E) 08:32:53 2200.000
HO-68 25 Jun 08:31:49 08:36:40 19° 92° (E) 08:41:28 435.675
GOMX 1 25 Jun 08:33:29 08:37:39 73° 284° (WNW) 08:41:56 467.674
GONETS M04 25 Jun 08:37:36 08:44:53 31° 276° (W) 08:52:11
NOAA 15 25 Jun 08:39:47 08:44:30 35° 291° (WNW) 08:49:12 137.62
CUTE 1.7 + AOD 2 25 Jun 08:49:50 08:52:37 17° 93° (E) 08:55:23 437.475
DANDE 25 Jun 08:58:01 09:05:47 46° 91° (E) 09:13:26 436.750
LilacSat-2 25 Jun 08:59:15 09:01:58 18° 291° (WNW) 09:04:41 437.200
SEEDS 25 Jun 09:01:10 09:03:47 16° 92° (E) 09:06:23 437.485
Cubesat XI-IV 25 Jun 09:02:48 09:07:29 31° 292° (WNW) 09:12:09 437.490
CUSAT 1 25 Jun 09:11:54 09:19:58 80° 279° (W) 09:27:05 437.405
PHONESAT 2.4 25 Jun 09:12:24 09:15:17 38° 155° (SSE) 09:18:10 2401.200-2431.200
AO-85 25 Jun 09:17:38 09:21:36 33° 247° (WSW) 09:25:16 145.980
Cosmos 2499 25 Jun 09:18:56 09:25:30 24° 279° (W) 09:31:49 435.465 / 435.565
ISS 25 Jun 09:36:59 09:37:56 11° 127° (SE) 09:38:53 145.825
CUTE-I 25 Jun 09:39:49 09:42:47 15° 298° (WNW) 09:45:44 437.470
CINEMA 3 25 Jun 09:39:50 09:44:20 76° 102° (ESE) 09:49:03 145.822/145.860
STRAND 1 25 Jun 09:41:20 09:43:40 13° 269° (W) 09:45:59 437.568
PRISM 25 Jun 09:48:32 09:52:35 51° 260° (W) 09:56:38 437.425
AAUSAT CUBESAT 2 25 Jun 09:50:34 09:54:20 32° 97° (E) 09:58:03 437.432
DOVE 4 25 Jun 09:54:12 09:57:27 21° 291° (WNW) 10:00:48 437.250
CUBEBUG 2 25 Jun 10:03:16 10:07:35 40° 98° (E) 10:12:00 437.445
CANX-2 25 Jun 10:03:38 10:07:50 55° 286° (WNW) 10:12:01 2200.000
AUBIESAT-1 25 Jun 10:03:42 10:06:37 20° 101° (ESE) 10:09:40 437.475
ANTELSAT 25 Jun 10:09:15 10:11:32 14° 65° (ENE) 10:13:51 437.575/2403.000
HO-68 25 Jun 10:17:46 10:24:57 73° 288° (WNW) 10:32:06 435.675
COMPASS 1 25 Jun 10:20:27 10:24:41 83° 283° (WNW) 10:28:51 437.405
CUTE 1.7 + AOD 2 25 Jun 10:24:37 10:28:34 36° 288° (WNW) 10:32:29 437.475
DELFI C3 25 Jun 10:35:16 10:37:55 17° 93° (E) 10:40:32 145.870
SEEDS 25 Jun 10:35:41 10:39:37 38° 288° (WNW) 10:43:31 437.485
M-CUBED/EXP-1 PRIME 25 Jun 10:38:50 10:42:38 67° 107° (ESE) 10:46:45 437.505
DANDE 25 Jun 10:40:54 10:48:38 41° 286° (WNW) 10:56:10 436.750
ZACube-1 25 Jun 10:46:29 10:50:56 54° 100° (E) 10:55:25 437.345
PHONESAT 2.4 25 Jun 10:48:48 10:51:51 60° 350° (N) 10:54:55 2401.200-2431.200
HUMSAT D 25 Jun 10:58:35 11:01:11 16° 93° (E) 11:03:47 437.325/437.525
CUSAT 1 25 Jun 10:58:37 11:02:43 15° 293° (WNW) 11:06:35 437.405
UWE-3 25 Jun 10:58:43 11:03:16 72° 284° (WNW) 11:07:53 435.000/436.395/437.385
TIGRISAT 25 Jun 10:59:54 11:04:00 49° 73° (ENE) 11:08:11 435.000
UNISAT 6 25 Jun 11:03:37 11:07:48 58° 75° (ENE) 11:12:05 437.425
Oscar 11 25 Jun 11:04:02 11:08:25 88° 280° (W) 11:12:46 145.826/435.025
FUNcube-1 25 Jun 11:06:09 11:10:42 85° 99° (E) 11:15:17 145.935
ISS 25 Jun 11:10:44 11:13:58 65° 322° (NW) 11:17:13 145.825
CINEMA 3 25 Jun 11:20:28 11:20:54 10° 296° (WNW) 11:21:22 145.822/145.860
RS-15 25 Jun 11:23:24 11:29:45 17° 97° (E) 11:36:13 29.354- 29.394
AAUSAT CUBESAT 2 25 Jun 11:26:39 11:29:34 19° 292° (WNW) 11:32:28 437.432
AUBIESAT-1 25 Jun 11:37:43 11:41:03 29° 293° (WNW) 11:44:36 437.475
CUBEBUG 2 25 Jun 11:40:45 11:43:54 19° 293° (WNW) 11:47:08 437.445
ANTELSAT 25 Jun 11:43:43 11:47:49 47° 261° (W) 11:52:01 437.575/2403.000
Cosmos 2491 25 Jun 12:01:53 12:08:49 26° 69° (ENE) 12:15:43 435.465 / 435.565
NANOSAT C BR1 25 Jun 12:05:14 12:09:11 43° 73° (ENE) 12:13:09 145.865
BUGSAT 1 25 Jun 12:05:25 12:08:04 17° 68° (ENE) 12:10:45 437.445
QB50P1 25 Jun 12:05:58 12:09:57 46° 73° (ENE) 12:13:59 145.935-145.965
HO-68 25 Jun 12:08:23 12:11:25 13° 307° (NW) 12:14:26 435.675
POPSAT HIP 1 25 Jun 12:08:45 12:12:47 49° 74° (ENE) 12:16:51 437.405
DELFI C3 25 Jun 12:09:16 12:12:49 31° 288° (WNW) 12:16:21 145.870
50 SAT 25 Jun 12:16:26 12:16:54 10° 92° (E) 12:17:22 437.505
JAS-2 25 Jun 12:18:55 12:24:57 26° 64° (ENE) 12:30:39 435.910
QB50P2 25 Jun 12:19:56 12:24:07 74° 75° (ENE) 12:28:19 145.880/145.840
PCSat 25 Jun 12:20:03 12:24:33 26° 51° (NE) 12:29:02 145.827
POLYITAN 1 25 Jun 12:22:33 12:26:44 76° 75° (ENE) 12:30:56 437.675
ZACube-1 25 Jun 12:24:24 12:26:45 14° 295° (WNW) 12:29:06 437.345
PHONESAT 2.4 25 Jun 12:25:39 12:28:41 54° 7° (N) 12:31:43 2401.200-2431.200
DUCHIFAT 1 25 Jun 12:27:27 12:31:35 76° 76° (ENE) 12:35:46 145.980
HUMSAT D 25 Jun 12:32:55 12:36:57 40° 287° (WNW) 12:40:59 437.325/437.525
TIGRISAT 25 Jun 12:39:11 12:40:59 12° 269° (W) 12:42:48 435.000
VELOX 1 25 Jun 12:39:12 12:42:33 21° 95° (E) 12:45:54 145.980
CUBEBUG 1 25 Jun 12:40:55 12:44:26 24° 96° (E) 12:47:57 437.445
UNISAT 6 25 Jun 12:44:13 12:44:55 10° 270° (W) 12:45:37 437.425
ISS 25 Jun 12:49:18 12:50:56 13° 340° (NNW) 12:52:33 145.825
ESTCUBE 1 25 Jun 12:59:15 13:03:44 61° 101° (E) 13:08:09 437.505/2401.250
BEESAT 3 25 Jun 13:06:56 13:10:40 39° 55° (NE) 13:14:22 437.485
AISAT 25 Jun 13:18:47 13:23:09 65° 101° (E) 13:27:30 437.250
RS-15 25 Jun 13:28:45 13:40:03 80° 117° (ESE) 13:52:03 29.354- 29.394
Oscar 19 25 Jun 13:30:57 13:35:16 28° 68° (ENE) 13:39:36 437.125/150
BEESAT 2 25 Jun 13:37:18 13:41:10 46° 56° (NE) 13:45:00 435.950
UKube-1 25 Jun 13:39:11 13:43:28 64° 102° (ESE) 13:47:44 .
BUGSAT 1 25 Jun 13:39:35 13:43:12 32° 262° (W) 13:46:50 437.445
YUBILEINY 25 Jun 13:41:55 13:50:09 50° 89° (E) 13:58:27 435.215
NANOSAT C BR1 25 Jun 13:43:00 13:45:07 14° 268° (W) 13:47:14 145.865
QB50P1 25 Jun 13:44:07 13:45:58 13° 268° (W) 13:47:49 145.935-145.965
POPSAT HIP 1 25 Jun 13:47:16 13:48:50 12° 268° (W) 13:50:25 437.405
50 SAT 25 Jun 13:47:17 13:50:49 43° 286° (WNW) 13:54:18 437.505
SPROUT 25 Jun 13:47:54 13:52:07 55° 100° (E) 13:56:19 437.525
TISAT 1 25 Jun 13:48:08 13:49:56 12° 92° (E) 13:51:44 437.305
DX 1 25 Jun 13:52:05 13:56:24 71° 286° (WNW) 14:00:42 434.975-435.025
Cosmos 2491 25 Jun 13:57:41 14:06:16 65° 268° (W) 14:14:49 435.465 / 435.565
JAS-2 25 Jun 14:01:45 14:09:28 64° 259° (WSW) 14:16:42 435.910
PHONESAT 2.4 25 Jun 14:02:19 14:05:20 51° 203° (SSW) 14:08:20 2401.200-2431.200
PCSat 25 Jun 14:02:59 14:08:07 43° 249° (WSW) 14:13:11 145.827
AO-7 25 Jun 14:07:25 14:07:57 10° 45° (NE) 14:08:30 29.400- 29.500
VELOX 1 25 Jun 14:15:10 14:19:01 31° 290° (WNW) 14:22:51 145.980
CUBEBUG 1 25 Jun 14:17:04 14:20:39 26° 290° (WNW) 14:24:14 437.445
O/OREOS (USA 219) 25 Jun 14:27:01 14:31:30 81° 67° (ENE) 14:36:00 437.305
ESTCUBE 1 25 Jun 14:38:10 14:39:59 12° 297° (WNW) 14:41:48 437.505/2401.250
BEESAT 3 25 Jun 14:45:40 14:48:00 15° 250° (WSW) 14:50:20 437.485
Gurwin Techsat 1B 25 Jun 14:56:54 15:02:12 79° 75° (ENE) 15:07:33 435.225
AISAT 25 Jun 14:57:45 14:59:03 11° 297° (WNW) 15:00:20 437.250
Oscar 19 25 Jun 15:09:52 15:14:28 32° 263° (W) 15:19:04 437.125/150
Cosmos 2504 25 Jun 15:11:30 15:19:12 57° 90° (E) 15:27:30 435.465 / 435.565
BEESAT 2 25 Jun 15:16:41 15:18:34 13° 251° (WSW) 15:20:28 435.950
UKube-1 25 Jun 15:17:47 15:18:57 11° 297° (WNW) 15:20:06 .
TISAT 1 25 Jun 15:21:47 15:25:49 47° 287° (WNW) 15:29:51 437.305
ITAMSAT 1 25 Jun 15:23:48 15:28:49 51° 72° (ENE) 15:33:52 435.822/435.867
SPROUT 25 Jun 15:25:52 15:27:34 12° 295° (WNW) 15:29:16 437.525
AIST 2 25 Jun 15:26:45 15:30:39 38° 54° (NE) 15:34:31 435.215
YUBILEINY 25 Jun 15:39:31 15:47:08 33° 288° (WNW) 15:54:52 435.215
SWISSCUBE 25 Jun 15:41:20 15:45:59 48° 100° (E) 15:50:36 437.505
RS-15 25 Jun 15:43:45 15:53:53 34° 322° (NW) 16:04:34 29.354- 29.394
AO-7 25 Jun 15:50:48 15:58:45 51° 65° (ENE) 16:06:43 29.400- 29.500
ISS 25 Jun 16:04:30 16:06:16 14° 21° (NNE) 16:08:04 145.825
ITUPSAT 1 25 Jun 16:05:34 16:10:24 77° 103° (ESE) 16:15:11 437.325
BEESAT 25 Jun 16:06:57 16:11:46 82° 105° (ESE) 16:16:33 436.000
KKS-1 25 Jun 16:19:03 16:20:13 11° 91° (E) 16:21:22 437.445
SO-50 25 Jun 16:20:46 16:23:11 14° 107° (ESE) 16:25:36 436.795
HORYU 2 25 Jun 16:40:02 16:42:38 16° 65° (ENE) 16:45:14 437.375
Gurwin Techsat 1B 25 Jun 16:41:17 16:42:43 11° 270° (W) 16:44:08 435.225
STARS 25 Jun 16:59:31 17:02:12 16° 93° (E) 17:04:54 437.465
ITAMSAT 1 25 Jun 17:05:08 17:08:33 18° 267° (W) 17:11:59 435.822/435.867
AIST 2 25 Jun 17:06:01 17:08:49 18° 250° (WSW) 17:11:38 435.215
Cosmos 2504 25 Jun 17:06:22 17:13:04 28° 291° (WNW) 17:20:11 435.465 / 435.565
MOZHAYETS 4 25 Jun 17:17:31 17:22:01 48° 99° (E) 17:26:29
SWISSCUBE 25 Jun 17:20:17 17:23:22 17° 295° (WNW) 17:26:26 437.505
ISS 25 Jun 17:39:56 17:43:12 73° 39° (NE) 17:46:27 145.825
CUTE-I 25 Jun 17:42:19 17:44:07 12° 60° (ENE) 17:45:54 437.470
AO-7 25 Jun 17:44:20 17:51:40 34° 262° (W) 17:59:04 29.400- 29.500
JUGNU 25 Jun 17:44:56 17:46:10 11° 171° (S) 17:47:24 437.505
ITUPSAT 1 25 Jun 17:46:08 17:47:33 11° 299° (WNW) 17:48:58 437.325
BEESAT 25 Jun 17:47:56 17:48:50 10° 299° (WNW) 17:49:43 436.000
KKS-1 25 Jun 17:52:45 17:57:08 61° 286° (WNW) 18:01:31 437.445
SO-50 25 Jun 17:58:15 18:03:07 66° 303° (WNW) 18:07:59 436.795
RS-15 25 Jun 18:04:30 18:11:54 18° 357° (N) 18:19:26 29.354- 29.394
LilacSat-2 25 Jun 18:06:57 18:08:10 11° 66° (ENE) 18:09:23 437.200
NOAA 18 25 Jun 18:10:02 18:14:25 26° 65° (ENE) 18:18:51 137.9125
HORYU 2 25 Jun 18:14:33 18:18:47 46° 260° (W) 18:23:04 437.375
NOAA 15 25 Jun 18:18:31 18:23:20 36° 69° (ENE) 18:28:08 137.62
AIST 1 25 Jun 18:32:52 18:37:13 85° 93° (E) 18:41:32
STARS 25 Jun 18:34:35 18:38:43 41° 288° (WNW) 18:42:51 437.465
CUBESAT XI-V 25 Jun 18:35:47 18:40:04 37° 97° (E) 18:44:19 437.345
Cubesat XI-IV 25 Jun 18:42:54 18:47:55 43° 70° (ENE) 18:52:58 437.490
BRITE-PL 25 Jun 18:47:54 18:53:05 63° 75° (ENE) 18:57:53 437.365/2234.400
MOZHAYETS 4 25 Jun 18:55:57 18:58:46 16° 295° (WNW) 19:01:33
HO-68 25 Jun 19:01:35 19:04:26 13° 53° (NE) 19:07:17 435.675
